Regional Weather Roundup
Issued by NWS Sterling, VA

Home | Current Version | Previous Version | Text Only | Print | Product List | Glossary Off
Versions: 1 2 3 4 5 6 7 8 9 10 11 12 13 14 15 16 17 18 19 20 21 22 23 24 25 26 27 28 29 30 31 32 33 34 35 36 37 38 39 40 41 42 43 44 45 46 47 48 49 50

000
ASUS41 KLWX 222010
RWRLWX

REGIONAL WEATHER ROUNDUP
NATIONAL WEATHER SERVICE BALTIMORE MD/WASHINGTON DC
400 PM EDT MON SEP 22 2014

Note: "FAIR" indicates few or no clouds below 12,000 feet
with no significant weather and/or obstructions to visibility.
 TC=TEMPERATURE CELSIUS

 * =Non NWS site. Station does not report precipitation (e.g. rain,
    snow, etc.), thunder, or fog.

DCZ001-MDZ009-015-VAZ040>042-051-053>054-222100-
WASHINGTON METRO

CITY           SKY/WX    TMP DP  RH WIND       PRES   REMARKS
WASHINGTON NAT PTSUNNY   75  44  33 NW17G23   30.04R
DULLES         MOSUNNY   72  42  34 NW9G23    30.05R
ANDREWS AFB    SUNNY     71  45  39 N20G25    30.03R
QUANTICO       MOSUNNY   73  44  35 NW15G25   30.04S
COLLEGE PARK*  SUNNY     72  45  37 W14       30.03S
LEESBURG*      SUNNY     72  46  40 NW14G24   30.06S
MANASSAS*      SUNNY     73  43  33 NW16G22   30.05R
GAITHERSBURG*  SUNNY     66  45  45 NW14G24   30.08S

$$

MDZ006>007-011-014-222100-
BALTIMORE METRO

CITY           SKY/WX    TMP DP  RH WIND       PRES   REMARKS
BWI AIRPORT    PTSUNNY   71  44  37 NW12G23   30.02R
MD SCIENCE CTR   N/A     72  44  36 MISG      30.02R
MARTIN STATE   MOSUNNY   73  48  40 NW15G23   30.02S
ANNAPOLIS      SUNNY     71  47  42 NW13      30.02R
FORT MEADE*    SUNNY     70  46  43 NW15      30.05R

$$

MDZ012-015-019>023-222100-
MARYLAND EASTERN SHORE

CITY           SKY/WX    TMP DP  RH WIND       PRES   REMARKS
OCEAN CITY     MOSUNNY   74  50  42 NW10      29.99R
SALISBURY      MOSUNNY   74  49  41 NW8       30.00R
BAY BRIDGE AP*   N/A     72  46  40 NW13      30.01S
CAMBRIDGE*     SUNNY     72  46  40 NW13      30.00S
EASTON*        MOSUNNY   73  50  43 N9G17     30.05R

$$

MDZ017>025-222100-
SOUTHERN MARYLAND

CITY           SKY/WX    TMP DP  RH WIND       PRES   REMARKS
PATUXENT RIVER MOSUNNY   74  45  35 NW14G22   30.01S
ST INIGOES     SUNNY     73  46  38 NW8       30.00S
LEONARDTOWN*   SUNNY     72  45  37 W6        30.02F

$$

MDZ003>005-222100-
NORTH CENTRAL MARYLAND

CITY           SKY/WX    TMP DP  RH WIND       PRES   REMARKS
FREDERICK*     SUNNY     72  46  40 NW14G22   30.09R
HAGERSTOWN APT SUNNY     65  42  43 NW24G31   30.08R
WESTMINSTER*   MOSUNNY   66  43  42 NW12G17   30.05R

$$

MDZ501>502-222100-
WESTERN MARYLAND

CITY           SKY/WX    TMP DP  RH WIND       PRES   REMARKS
OAKLAND*       CLOUDY    50  41  71 W9G17     30.15S
CUMBERLAND*    PTSUNNY   70  39  32 NW14G21   30.15R

$$

VAZ025>031-222100-
SHENANDOAH VALLEY

CITY           SKY/WX    TMP DP  RH WIND       PRES   REMARKS
WINCHESTER*    SUNNY     70  41  35 W14G21    30.07S
STAUNTON*      SUNNY     71  40  31 NW8       30.09S

$$

WVZ021-048>050-054>055-222100-
EASTERN WEST VIRGINIA PANHANDLE

CITY           SKY/WX    TMP DP  RH WIND       PRES   REMARKS
MARTINSBURG    SUNNY     69  42  37 NW17G25   30.07S
PETERSBURG*    SUNNY     66  38  35 W9G21     30.12S

$$

VAZ036>039-050-222100-
CENTRAL FOOTHILLS

CITY           SKY/WX    TMP DP  RH WIND       PRES   REMARKS
CHARLOTTESVILL SUNNY     75  44  33 N7        30.04S
ORANGE*        SUNNY     73  41  31 NW8       30.05S

$$

VAZ055>057-222100-
NORTH AND CENTRAL PIEDMONT

CITY           SKY/WX    TMP DP  RH WIND       PRES   REMARKS
FREDERICKSBRG* SUNNY     75  46  35 NW8       30.01F
STAFFORD*      SUNNY     74  44  34 NW14G21   30.07S

$$

NCZ024-NYZ072-PAZ021-071-VAZ022-071-222100-
OTHER REGIONAL OBSERVATIONS

CITY           SKY/WX    TMP DP  RH WIND       PRES   REMARKS
NEW YORK CITY  MOSUNNY   69  43  38 W10G23    29.95S
PHILADELPHIA   PTSUNNY   69  47  45 NW15      29.99R
PITTSBURGH     CLOUDY    56  42  59 NW13      30.17F
ROANOKE        MOSUNNY   72  48  42 NW9       30.10S
RICHMOND       PTSUNNY   78  45  30 N8        30.02R
RALEIGH        PTSUNNY   73  52  47 VRB6      30.05S

$$

ANZ530>537-222100-
MARINE OBSERVATIONS

STATION/POSITION TIME  TEMP    WIND        PRES
                       AIR SEA DIR/SP/G
                 (UTC) (F)     (DEG/KT/KT) (MB)
THOMAS PT LIGHT  2000   69 74  300/ 10/ 13 1017.4R
BALT KEY BRIDGE  2000   69     300/ 16/ 19 1016.5R
COVE POINT       2000   69     350/ 15/ 20 1015.9F
LEWISETTA        2000   71 74  320/  6/  8 1016.1R
SOLOMONS ISLAND  2000      75                N/A
PINEY POINT      2000          330/ 12/ 15   N/A

$$




USA.gov is the U.S. government's official web portal to all federal, state and local government web resources and services.